EW5004 Weather Reports


Display with metric or nautical units.
time (UTC)temp
F
wind
direction
speed
MPH
gust
MPH
rain 1hr
in
rain 24hr
in
rain mn
in
humidity
%
barometer
mb
20260903194515 80 296 2.0 6.0 0.00 0.00 0.00 100 1012.4
20260903193013 79 42 0.0 7.0 0.00 0.00 0.00 100 1012.1
20260903191519 79 341 3.0 6.0 0.00 0.00 0.00 100 1012.6
20260903190002 80 9 4.0 9.0 0.00 0.00 0.00 100 1012.9
20260903184602 80 304 3.0 8.0 0.00 0.00 0.00 100 1013.1
20260903183058 81 16 3.0 7.0 0.00 0.00 0.00 100 1013.2
20260903181549 83 355 2.0 6.0 0.00 0.00 0.00 100 1013.1
20260903180046 83 308 1.0 6.0 0.00 0.00 0.00 1 1012.9
20260903174540 83 355 3.0 9.0 0.00 0.00 0.00 5 1013.2
20260903173035 83 287 2.0 7.0 0.00 0.00 0.00 2 1013.2
20260903171531 83 360 3.0 8.0 0.00 0.00 0.00 5 1013.4
20260903170036 83 310 2.0 7.0 0.00 0.00 0.00 6 1013.3
20260903164523 83 319 3.0 8.0 0.00 0.00 0.00 8 1013.5
20260903163027 83 289 3.0 7.0 0.00 0.00 0.00 9 1013.5
20260903161515 83 292 3.0 7.0 0.00 0.00 0.00 12 1013.5
20260903160009 83 288 2.0 5.0 0.00 0.00 0.00 3 1013.4
20260903154505 82 309 3.0 10.0 0.00 0.00 0.00 7 1013.5
20260903153109 81 289 3.0 8.0 0.00 0.00 0.00 3 1013.6
20260903151607 81 281 3.0 7.0 0.00 0.00 0.00 3 1013.7
20260903150057 79 321 2.0 8.0 0.00 0.00 0.00 1 1013.7
20260903144547 78 347 3.0 7.0 0.00 0.00 0.00 100 1013.8
20260903143042 77 300 2.0 5.0 0.00 0.00 0.00 100 1013.8
20260903141525 76 279 3.0 7.0 0.00 0.00 0.00 100 1013.9
20260903140023 75 250 4.0 7.0 0.00 0.00 0.00 100 1013.9
20260903134522 75 256 3.0 7.0 0.00 0.00 0.00 100 1014.0
20260903133012 74 271 2.0 5.0 0.00 0.00 0.00 100 1014.1
20260903131508 72 237 1.0 6.0 0.00 0.00 0.00 100 1014.1
20260903130004 72 241 3.0 6.0 0.00 0.00 0.00 100 1014.1
20260903124613 71 250 3.0 6.0 0.00 0.00 0.00 100 1014.3
20260903123055 70 244 2.0 7.0 0.00 0.00 0.00 100 1014.3
20260903121550 69 223 2.0 5.0 0.00 0.00 0.00 100 1014.4
20260903120057 69 230 1.0 4.0 0.00 0.00 0.00 100 1014.2
20260903114542 69 223 1.0 4.0 0.00 0.00 0.00 100 1014.2
20260903113043 69 199 2.0 7.0 0.00 0.00 0.00 100 1014.3
20260903111533 69 235 1.0 4.0 0.00 0.00 0.00 100 1014.0
20260903110029 69 250 0.0 3.0 0.00 0.00 0.00 100 1013.6
20260903104525 69 269 1.0 4.0 0.00 0.00 0.00 100 1013.1
20260903103020 69 287 1.0 10.0 0.00 0.00 0.00 100 1013.5
20260903101536 69 307 5.0 13.0 0.00 0.00 0.00 100 1013.9
20260903100011 69 277 4.0 18.0 0.00 0.00 0.00 100 1014.2
20260903094507 69 282 5.0 12.0 0.00 0.00 0.00 100 1013.3
20260903093001 68 338 3.0 10.0 0.00 0.00 0.00 100 1013.3
20260903091602 68 244 2.0 6.0 0.00 0.00 0.00 100 1012.2
20260903090054 68 238 2.0 7.0 0.00 0.00 0.00 100 1012.1
20260903084550 68 250 2.0 6.0 0.00 0.00 0.00 100 1012.6
20260903083045 68 244 2.0 8.0 0.00 0.00 0.00 100 1012.5
20260903081540 68 239 1.0 5.0 0.00 0.00 0.00 100 1012.6
20260903080049 68 231 3.0 5.0 0.00 0.00 0.00 100 1012.6
20260903074531 68 223 2.0 7.0 0.00 0.00 0.00 100 1012.8
20260903074501 68 212 2.0 7.0 0.00 0.00 0.00 100 1012.7
20260903073030 68 261 3.0 7.0 0.00 0.00 0.00 100 1012.4
20260903071522 69 229 1.0 6.0 0.00 0.00 0.00 100 1012.5
20260903070019 69 273 4.0 10.0 0.00 0.00 0.00 100 1012.0
20260903064513 70 246 2.0 6.0 0.00 0.00 0.00 100 1012.0
20260903063008 70 204 3.0 7.0 0.00 0.00 0.00 100 1012.4
20260903061512 70 279 4.0 8.0 0.00 0.00 0.00 100 1014.3
20260903060100 70 234 2.0 6.0 0.00 0.00 0.00 100 1013.0
20260903054604 70 249 2.0 5.0 0.00 0.00 0.00 100 1013.1
20260903053058 70 203 0.0 3.0 0.00 0.00 0.00 100 1013.6
20260903051546 70 203 0.0 5.0 0.00 0.00 0.00 100 1013.6
20260903050036 70 245 1.0 6.0 0.00 0.00 0.00 100 1013.3
20260903044537 70 214 3.0 14.0 0.00 0.00 0.00 100 1013.6
20260903043030 71 139 10.0 15.0 0.00 0.00 0.00 100 1013.5
20260903041523 71 171 13.0 22.0 0.00 0.00 0.00 100 1013.0
20260903040018 70 130 6.0 11.0 0.00 0.00 0.00 100 1013.4
20260903034514 70 180 2.0 5.0 0.00 0.00 0.00 100 1012.0
20260903033008 70 208 2.0 6.0 0.00 0.00 0.00 100 1011.8
20260903031505 70 178 3.0 9.0 0.00 0.00 0.00 100 1011.8
20260903024556 70 212 3.0 7.0 0.00 0.00 0.00 100 1012.9
20260903023051 71 144 7.0 12.0 0.00 0.00 0.00 100 1013.9
20260903021547 74 153 5.0 21.0 0.00 0.00 0.00 17 1014.0
20260903020042 78 119 7.0 12.0 0.00 0.00 0.00 2 1013.9
20260903014538 77 257 3.0 12.0 0.00 0.00 0.00 100 1012.8
20260903013038 78 236 1.0 6.0 0.00 0.00 0.00 100 1012.3
20260903011529 78 242 2.0 7.0 0.00 0.00 0.00 100 1012.0
20260903010025 79 244 4.0 9.0 0.00 0.00 0.00 100 1011.8
20260903004521 79 254 2.0 7.0 0.00 0.00 0.00 100 1012.1
20260903003015 79 248 1.0 4.0 0.00 0.00 0.00 1 1012.0
20260903001511 80 244 2.0 6.0 0.00 0.00 0.00 3 1011.8
20260903000017 80 267 1.0 5.0 0.00 0.00 0.00 6 1012.1
20260902234509 81 234 4.0 7.0 0.00 0.00 0.00 11 1012.1
20260902233058 82 248 1.0 7.0 0.00 0.00 0.00 16 1012.1
20260902231554 83 242 1.0 5.0 0.00 0.00 0.00 23 1012.0
20260902230051 84 248 3.0 9.0 0.00 0.00 0.00 31 1011.7
20260902224553 86 288 4.0 10.0 0.00 0.00 0.00 35 1011.5
20260902223041 87 270 2.0 8.0 0.00 0.00 0.00 41 1011.6
20260902221543 90 266 1.0 3.0 0.00 0.00 0.00 50 1011.8
20260902220039 90 292 2.0 6.0 0.00 0.00 0.00 54 1011.7
20260902214529 91 290 1.0 5.0 0.00 0.00 0.00 53 1011.8
20260902213023 91 294 1.0 6.0 0.00 0.00 0.00 54 1011.7
20260902211518 92 296 3.0 9.0 0.00 0.00 0.00 55 1011.6
20260902210014 92 289 3.0 8.0 0.00 0.00 0.00 55 1011.4
20260902204510 92 292 2.0 7.0 0.00 0.00 0.00 52 1011.8
20260902203005 92 284 0.0 6.0 0.00 0.00 0.00 52 1012.0
20260902201500 91 291 1.0 6.0 0.00 0.00 0.00 53 1012.5
20260902200108 91 280 1.0 9.0 0.00 0.00 0.00 52 1012.7